When you browse on this site, cookies collect data to enhance your experience and personalize the content and advertising you see.
Visit our Privacy Policy to learn more. By continuing to use the site, you agree to this use of cookies and data.
  • In Portugal
  • List of Countries
  • For 7 days
  • Water Temperature
  • Satellite Maps
  • Weather Map
  • Weather Widgets
  • user-avatar
    Login

    Hourly Weather Nakhchivan

    Today, 21 July, Sunday

    Time Temperature Precipitation Wind Pressure Humidity
    00:00 +28°C° 0 mm 3 mps 689 mmHg 40%
    01:00 +28°C° 0 mm 2 mps 688 mmHg 42%
    02:00 +27°C° 0 mm 2 mps 688 mmHg 43%
    03:00 +27°C° 0 mm 1 mps 688 mmHg 44%
    04:00 +27°C° 0 mm 1 mps 688 mmHg 43%
    05:00 +27°C° 0 mm 2 mps 689 mmHg 43%
    06:00 +27°C° 0 mm 2 mps 689 mmHg 42%
    07:00 +29°C° 0 mm 2 mps 689 mmHg 38%
    08:00 +30°C° 0 mm 2 mps 689 mmHg 35%
    09:00 +32°C° 0 mm 2 mps 689 mmHg 29%
    10:00 +35°C° 0 mm 3 mps 689 mmHg 26%
    11:00 +37°C° 0 mm 3 mps 689 mmHg 22%
    12:00 +40°C° 0 mm 4 mps 689 mmHg 19%
    13:00 +41°C° 0 mm 4 mps 688 mmHg 17%
    14:00 +43°C° 0 mm 5 mps 688 mmHg 15%
    15:00 +44°C° 0 mm 4 mps 687 mmHg 13%
    16:00 +43°C° 0 mm 5 mps 687 mmHg 15%
    17:00 +42°C° 0 mm 5 mps 687 mmHg 16%
    18:00 +41°C° 0 mm 5 mps 687 mmHg 17%
    19:00 +39°C° 0 mm 5 mps 687 mmHg 21%
    20:00 +36°C° 0 mm 4 mps 686 mmHg 26%
    21:00 +33°C° 0 mm 3 mps 686 mmHg 30%
    22:00 +33°C° 0 mm 3 mps 686 mmHg 31%
    23:00 +31°C° 0 mm 3 mps 686 mmHg 32%

    Tomorrow, 22 July, Monday

    Time Temperature Precipitation Wind Pressure Humidity
    00:00 +31°C° 0 mm 2 mps 686 mmHg 33%
    01:00 +30°C° 0 mm 2 mps 686 mmHg 35%
    02:00 +30°C° 0 mm 2 mps 686 mmHg 38%
    03:00 +29°C° 0 mm 2 mps 686 mmHg 40%
    04:00 +29°C° 0 mm 1 mps 686 mmHg 40%
    05:00 +29°C° 0 mm 1 mps 686 mmHg 40%
    06:00 +27°C° 0 mm 0 mps 686 mmHg 40%
    07:00 +29°C° 0 mm 0 mps 686 mmHg 36%
    08:00 +33°C° 0 mm 1 mps 686 mmHg 31%
    09:00 +34°C° 0 mm 1 mps 685 mmHg 27%
    10:00 +38°C° 0 mm 2 mps 686 mmHg 23%
    11:00 +40°C° 0 mm 2 mps 686 mmHg 19%
    12:00 +43°C° 0 mm 3 mps 686 mmHg 14%
    13:00 +44°C° 0 mm 3 mps 685 mmHg 12%
    14:00 +47°C° 0 mm 4 mps 685 mmHg 10%
    15:00 +48°C° 0 mm 5 mps 685 mmHg 8%
    16:00 +47°C° 0 mm 5 mps 685 mmHg 11%
    17:00 +46°C° 0 mm 6 mps 684 mmHg 13%
    18:00 +45°C° 0 mm 6 mps 684 mmHg 15%
    19:00 +41°C° 0 mm 6 mps 684 mmHg 22%
    20:00 +37°C° 0 mm 5 mps 684 mmHg 28%
    21:00 +35°C° 0 mm 5 mps 684 mmHg 34%
    22:00 +34°C° 0 mm 4 mps 684 mmHg 37%
    23:00 +33°C° 0 mm 3 mps 684 mmHg 39%

    Day after tomorrow, 23 July, Tuesday

    Time Temperature Precipitation Wind Pressure Humidity
    00:00 +31°C° 0 mm 3 mps 683 mmHg 41%
    01:00 +30°C° 0 mm 2 mps 683 mmHg 43%
    02:00 +30°C° 0 mm 1 mps 683 mmHg 45%
    03:00 +29°C° 0 mm 1 mps 683 mmHg 47%
    04:00 +29°C° 0 mm 1 mps 683 mmHg 47%
    05:00 +29°C° 0 mm 1 mps 684 mmHg 48%
    06:00 +29°C° 0 mm 1 mps 684 mmHg 48%
    07:00 +30°C° 0 mm 2 mps 684 mmHg 44%
    08:00 +31°C° 0 mm 2 mps 684 mmHg 40%
    09:00 +34°C° 0 mm 2 mps 684 mmHg 36%
    10:00 +36°C° 0 mm 2 mps 684 mmHg 31%
    11:00 +37°C° 0 mm 3 mps 684 mmHg 27%
    12:00 +39°C° 0 mm 3 mps 684 mmHg 22%
    13:00 +42°C° 0 mm 4 mps 684 mmHg 20%
    14:00 +43°C° 0 mm 5 mps 683 mmHg 18%
    15:00 +45°C° 0 mm 6 mps 683 mmHg 15%
    16:00 +44°C° 0 mm 6 mps 683 mmHg 17%
    17:00 +43°C° 0 mm 7 mps 683 mmHg 19%
    18:00 +41°C° 0 mm 7 mps 683 mmHg 20%
    19:00 +39°C° 0 mm 6 mps 683 mmHg 24%
    20:00 +36°C° 0 mm 5 mps 683 mmHg 28%
    21:00 +33°C° 0 mm 3 mps 683 mmHg 32%
    22:00 +32°C° 0 mm 2 mps 683 mmHg 35%
    23:00 +31°C° 0 mm 2 mps 684 mmHg 38%

    24 July, Wednesday

    Time Temperature Precipitation Wind Pressure Humidity
    00:00 +30°C° 0 mm 1 mps 684 mmHg 41%
    01:00 +29°C° 0 mm 1 mps 684 mmHg 43%
    02:00 +28°C° 0 mm 1 mps 684 mmHg 46%
    03:00 +28°C° 0 mm 1 mps 683 mmHg 48%
    04:00 +28°C° 0 mm 1 mps 684 mmHg 49%
    05:00 +28°C° 0 mm 1 mps 684 mmHg 49%
    06:00 +28°C° 0 mm 1 mps 684 mmHg 50%
    07:00 +29°C° 0 mm 1 mps 684 mmHg 45%
    08:00 +30°C° 0 mm 1 mps 684 mmHg 41%
    09:00 +32°C° 0 mm 1 mps 684 mmHg 37%
    10:00 +34°C° 0 mm 1 mps 684 mmHg 32%
    11:00 +35°C° 0 mm 1 mps 685 mmHg 27%
    12:00 +37°C° 0 mm 1 mps 685 mmHg 23%
    13:00 +40°C° 0 mm 3 mps 685 mmHg 18%
    14:00 +42°C° 0 mm 4 mps 685 mmHg 13%
    15:00 +45°C° 0 mm 5 mps 685 mmHg 8%
    16:00 +44°C° 0 mm 6 mps 685 mmHg 7%
    17:00 +44°C° 0 mm 7 mps 685 mmHg 7%
    18:00 +43°C° 0 mm 8 mps 684 mmHg 6%
    19:00 +40°C° 0 mm 7 mps 685 mmHg 8%
    20:00 +37°C° 0 mm 5 mps 685 mmHg 10%
    21:00 +35°C° 0 mm 3 mps 685 mmHg 12%
    22:00 +34°C° 0 mm 3 mps 685 mmHg 17%
    23:00 +31°C° 0 mm 2 mps 685 mmHg 21%

    25 July, Thursday

    Time Temperature Precipitation Wind Pressure Humidity
    00:00 +30°C° 0 mm 2 mps 685 mmHg 25%
    01:00 +29°C° 0 mm 2 mps 685 mmHg 27%
    02:00 +29°C° 0 mm 1 mps 684 mmHg 29%
    03:00 +28°C° 0 mm 1 mps 684 mmHg 31%
    04:00 +28°C° 0 mm 1 mps 684 mmHg 30%
    05:00 +29°C° 0 mm 1 mps 685 mmHg 30%
    06:00 +27°C° 0 mm 0 mps 685 mmHg 30%
    07:00 +29°C° 0 mm 0 mps 685 mmHg 26%
    08:00 +33°C° 0 mm 1 mps 685 mmHg 22%
    09:00 +35°C° 0 mm 1 mps 686 mmHg 19%
    10:00 +37°C° 0 mm 1 mps 686 mmHg 16%
    11:00 +40°C° 0 mm 2 mps 686 mmHg 13%
    12:00 +43°C° 0 mm 3 mps 686 mmHg 10%
    13:00 +43°C° 0 mm 3 mps 685 mmHg 9%
    14:00 +44°C° 0 mm 3 mps 685 mmHg 8%
    15:00 +45°C° 0 mm 3 mps 684 mmHg 7%
    16:00 +45°C° 0 mm 4 mps 684 mmHg 8%
    17:00 +44°C° 0 mm 4 mps 684 mmHg 8%
    18:00 +43°C° 0 mm 4 mps 684 mmHg 9%
    19:00 +41°C° 0 mm 4 mps 684 mmHg 14%
    20:00 +38°C° 0 mm 4 mps 684 mmHg 19%
    21:00 +35°C° 0 mm 3 mps 684 mmHg 24%
    22:00 +34°C° 0 mm 3 mps 684 mmHg 27%
    23:00 +32°C° 0 mm 2 mps 684 mmHg 31%

    26 July, Friday

    Time Temperature Precipitation Wind Pressure Humidity
    00:00 +30°C° 0 mm 2 mps 684 mmHg 34%
    01:00 +29°C° 0 mm 2 mps 683 mmHg 37%
    02:00 +28°C° 0 mm 2 mps 683 mmHg 40%
    03:00 +27°C° 0 mm 2 mps 683 mmHg 43%
    04:00 +27°C° 0 mm 2 mps 683 mmHg 44%
    05:00 +27°C° 0 mm 2 mps 684 mmHg 45%
    06:00 +27°C° 0 mm 2 mps 684 mmHg 45%
    07:00 +28°C° 0 mm 2 mps 684 mmHg 42%
    08:00 +30°C° 0 mm 2 mps 684 mmHg 38%
    09:00 +31°C° 0 mm 2 mps 684 mmHg 34%
    10:00 +34°C° 0 mm 2 mps 684 mmHg 30%
    11:00 +35°C° 0 mm 2 mps 684 mmHg 26%
    12:00 +36°C° 0 mm 1 mps 683 mmHg 22%
    13:00 +38°C° 0 mm 2 mps 683 mmHg 19%
    14:00 +40°C° 0 mm 2 mps 683 mmHg 16%
    15:00 +41°C° 0 mm 2 mps 683 mmHg 13%
    16:00 +40°C° 0 mm 3 mps 682 mmHg 14%
    17:00 +40°C° 0 mm 3 mps 682 mmHg 15%
    18:00 +40°C° 0 mm 3 mps 682 mmHg 16%
    19:00 +37°C° 0 mm 3 mps 682 mmHg 21%
    20:00 +35°C° 0 mm 3 mps 682 mmHg 25%
    21:00 +33°C° 0 mm 3 mps 682 mmHg 30%
    22:00 +31°C° 0 mm 3 mps 682 mmHg 32%
    23:00 +29°C° 0 mm 2 mps 682 mmHg 34%
    Show more